Cloud_Cover
86 28 43 21 12 5 5 15 45 13 50 93 87 75 48 82 24 45 5 82 100 100
8 5 5 5 5 5 5 5 56 98 97 94 100 56 84 76 58 82 100 98 100 100
5 5 5 10 3 5 5 5 5 5 46 100 85 48 13 42 61 52 93 100 100 100
5 67 5 4 5 5 5 5 5 5 100 100 97 100 100 59 89 100 99 100 100 100
5 36 55 8 5 5 9 82 55 87 21 43 100 100 100 71 100 100 100 100 100 100
5 50 91 100 8 66 86 96 69 91 96 100 100 100 100 79 100 100 100 100 100 100
7 5 5 5 69 64 53 64 74 96 80 94 100 100 100 100 100 100 100 100 100 100
56 7 5 5 20 100 10 32 72 15 65 100 100 94 100 100 83 100 100 100 100 97
6 5 5 5 7 98 100 98 58 60 100 100 100 97 100 56 100 100 100 100 90 100
5 5 19 16 14 72 100 36 47 77 100 100 98 98 76 77 100 100 100 100 74 67
5 5 31 35 39 97 100 10 71 100 100 100 100 100 91 87 100 100 100 100 100 77
10 24 39 53 51 100 87 27 100 100 100 100 100 100 99 95 100 100 100 100 100 100
46 28 39 29 62 32 100 100 100 100 100 100 100 100 100 100 100 100 100 100 100 100
69 61 80 65 63 54 92 96 100 100 100 100 100 100 100 100 100 100 100 100 100 100